Regional Weather Roundup
Issued by NWS

Home | Current Version | Previous Version | Graphics & Text | Print | Product List | Glossary On
Versions: 1 2 3 4 5 6 7 8 9 10 11 12 13 14 15 16 17 18 19 20 21 22 23 24 25 26 27 28 29 30 31 32 33 34 35 36 37 38 39 40 41 42 43 44 45 46 47 48 49 50
000
ASUS43 KTOP 190759
RWRKS

WEATHER ROUNDUP FOR KANSAS
NATIONAL WEATHER SERVICE GOODLAND KS
300 AM CDT SAT APR 19 2014

NOTE:  "FAIR" INDICATES FEW OR NO CLOUDS BELOW 12,000 FEET WITH NO
SIGNIFICANT WEATHER AND/OR OBSTRUCTIONS TO VISIBILITY.

KSZ001>006-013>018-027>032-041>047-190900-
NORTHWEST KANSAS

CITY           SKY/WX    TMP DP  RH WIND       PRES   REMARKS
GOODLAND       PTCLDY    52  44  74 S21       29.88F
HAYS           PTCLDY    55  45  67 S22       29.99F
HILL CITY      MOCLDY    56  46  69 S17G26    29.95F
RUSSELL        CLEAR     56  46  69 S21       30.00F
$$

KSZ061>065-074>080-084>089-190900-
SOUTHWEST KANSAS

CITY           SKY/WX    TMP DP  RH WIND       PRES   REMARKS
DODGE CITY     MOCLDY    52  45  77 S20       30.03F
ELKHART          N/A     56  41  57 S15         N/A
GARDEN CITY    CLOUDY    52  46  80 S17G28    29.97F
GREAT BEND     PTCLDY    55  45  67 S18       30.02F
LIBERAL        PTCLDY    54  43  66 SE18      30.03F
$$

KSZ066>073-081>083-090>101-190900-
SOUTHEAST KANSAS

CITY           SKY/WX    TMP DP  RH WIND       PRES   REMARKS
CHANUTE        CLEAR     46  40  79 SE6       30.14F
COFFEYVILLE    CLEAR     43  39  86 CALM      30.14F
HUTCHINSON     CLEAR     54  40  59 S13       30.08F
NEWTON         CLEAR     48  36  61 SE10      30.12F
PARSONS        CLEAR     42  37  82 E3        30.15F
WICHITA INTL   PTCLDY    52  40  63 S12       30.10F
WICHITA JABRA  CLEAR     53  40  61 S9        30.10F
WINFIELD       CLEAR     52  41  66 SE8       30.12F
$$

KSZ007>012-019>026-033>040-048>060-102>105-190900-
NORTHEAST KANSAS

CITY           SKY/WX    TMP DP  RH WIND       PRES   REMARKS
CONCORDIA      CLEAR     57  39  51 S20G26    30.04F
EMPORIA        CLEAR     48  40  73 SE7       30.12F HAZE
LAWRENCE       CLEAR     45  40  82 SE3       30.14F
MANHATTAN      CLEAR     56  40  55 S8        30.10S
OLATHE IND     CLEAR     54  40  59 SE10      30.15F
OLATHE EXE     CLEAR     53  40  61 SE8       30.14F
SALINA         PTCLDY    56  39  53 S13       30.07S
TOPEKA BILLARD CLEAR     52  42  69 SE6       30.14S
TOPEKA FORBES  CLEAR     49  41  74 SE6       30.13F
$$



USA.gov is the U.S. government's official web portal to all federal, state and local government web resources and services.